Location: Altmatt
(47.1333°N, 8.7000°E)
Time: 19:18:16
(UTC+00:00)

Cosmos 2369 Rocket - Pass Details

Date: 13 July 2020
Orbit: 829 x 852 km, 71.0° (Epoch: 11 August)

Event Time Altitude Azimuth Distance (km) Brightness Sun altitude
Rises 19:50:39 0° 339° (NNW) 3,384 6.5 -5.2°
Reaches altitude 10° 19:54:45 10° 9° (N) 2,448 5.1 -5.8°
Maximum altitude 19:57:06 13° 34° (NNE) 2,268 4.6 -6.1°
Drops below altitude 10° 19:59:27 10° 59° (ENE) 2,448 4.4 -6.4°
Sets 20:03:32 0° 88° (E) 3,383 4.9 -6.9°
